User: anonymous   Login
Location: Moena
(46.3667°N, 11.6500°E)
Time: 02:53:49
(UTC+00:00)
Language:

APEX - Orbit

View from above orbital plane
View from above orbital plane
View from above satellite
View from above satellite

Ground track
Ground track

The orbit data is extracted from the following two-line orbital elements,

1 23191U 94046A   21127.37837848  .00007699  00000-0  23091-3 0  9999
2 23191  69.9121 123.5928 0527440  44.8646 319.3884 14.56258590321973
Epoch (UTC): 07 May 2021 09:04:51
Eccentricity: 0.0527440
inclination: 69.9121°
perigee height: 331 km
apogee height: 1079 km
right ascension of ascending node: 123.5928°
argument of perigee: 44.8646°
revolutions per day: 14.56258590
mean anomaly at epoch: 319.3884°
orbit number at epoch: 32197

The dashed part of the orbit path shows where the satellite is in the earth's shadow,  

DLR